STARLINK-2067 (47674 NORAD) Tracking and Keplerian Element Data
This shows tracking and keplerian element data for the satellite.
Feedback or suggestion? Click here.
Element | Value |
Catalog | 47674 |
Name | STARLINK-2067 |
Epoch Orbit | 183 |
Epoch Day | 56.91667824 |
Epoch Year | 2021 |
RAAN | 53.308 |
Inclination | 53.0491 |
Eccentricity | 0.0001325 |
Argument of Perigee | 87.2951 |
Mean Anonmoly | 174.6859 |
Mean Motion | 15.8568165 |
Decay Rate | 0.00146242 |
L1 | 1 47674U 21012BG 21056.91667824 .00146242 00000-0 58348-3 0 9991 |
L2 | 2 47674 53.0491 53.3080 0001325 87.2951 174.6859 15.85681650 1831 |
Live tracking and technical data element details for STARLINK-2067 (NORAD 47674). STARLINK-2067 can be tracked NOW for your location showing map with azimuth and elevation plus other details from your city location.
Track the satellite on the map from your city or location and see movement details for azimuth, elevation, latitude, longitude, range, height, and movement on the map or in text.
IsCatalogInMostPopularTable: catalog: 47674, numindb: 1
Update: records affected: 1
GetName: 47674 STARLINK-2067
Hit Count: updated at: Fri, 26 Feb 2021 10:14:48 GMT